N2324K KLXV-KASE

Flight info

Callsign N2324K
Flight time 0h 26m
Altitude 12000
Route DCT
Aircraft BE36/L-BDFGLORY/S

Departure

Time 2026-04-22 00:17
Airport Lake County Airport (KLXV)

Arrival

Time 2026-04-22 00:43
Airport Aspen-Pitkin County Airport (Sardy Field) (KASE)
Time Latitude Longitude Altitude Speed Heading
2026-04-21 23:49 39.22297 -106.31608 9934 ft 0 kts 84°
2026-04-22 00:04 39.22282 -106.31601 9932 ft 4 kts 196°
2026-04-22 00:04 39.22259 -106.31647 9937 ft 6 kts 224°
2026-04-22 00:05 39.22253 -106.31651 9932 ft 0 kts 209°
2026-04-22 00:05 39.22231 -106.31675 9936 ft 12 kts 231°
2026-04-22 00:05 39.22141 -106.31688 9932 ft 19 kts 169°
2026-04-22 00:05 39.21985 -106.31655 9933 ft 25 kts 175°
2026-04-22 00:06 39.21807 -106.31623 9928 ft 26 kts 163°
2026-04-22 00:06 39.21618 -106.31576 9926 ft 28 kts 172°
2026-04-22 00:06 39.21426 -106.31533 9923 ft 30 kts 171°
2026-04-22 00:06 39.21258 -106.31495 9928 ft 12 kts 169°
2026-04-22 00:07 39.21221 -106.31487 9930 ft 10 kts 171°
2026-04-22 00:07 39.21167 -106.31451 9932 ft 9 kts 106°
2026-04-22 00:07 39.21173 -106.31385 9931 ft 9 kts 84°
2026-04-22 00:07 39.21160 -106.31348 9924 ft 0 kts 218°
2026-04-22 00:10 39.21138 -106.31355 9927 ft 5 kts 180°
2026-04-22 00:11 39.21126 -106.31354 9927 ft 0 kts 179°
2026-04-22 00:13 39.21112 -106.31355 9931 ft 5 kts 200°
2026-04-22 00:13 39.21110 -106.31357 9931 ft 0 kts 219°
2026-04-22 00:14 39.21105 -106.31363 9931 ft 1 kts 222°
2026-04-22 00:14 39.21104 -106.31363 9931 ft 0 kts 222°
2026-04-22 00:15 39.21099 -106.31373 9928 ft 6 kts 244°
2026-04-22 00:16 39.21091 -106.31447 9933 ft 8 kts 291°
2026-04-22 00:16 39.21111 -106.31464 9929 ft 0 kts 347°
2026-04-22 00:17 39.21370 -106.31519 9926 ft 81 kts 350°
2026-04-22 00:17 39.22115 -106.31682 10035 ft 125 kts 347°
2026-04-22 00:17 39.23008 -106.31841 10515 ft 132 kts 347°
2026-04-22 00:17 39.23936 -106.32000 10953 ft 143 kts 347°
2026-04-22 00:18 39.24863 -106.32535 11180 ft 155 kts 306°
2026-04-22 00:18 39.25090 -106.33835 11408 ft 152 kts 258°
2026-04-22 00:18 39.24427 -106.34867 11618 ft 159 kts 206°
2026-04-22 00:18 39.23324 -106.34837 11838 ft 166 kts 167°
2026-04-22 00:19 39.22234 -106.34366 12047 ft 162 kts 166°
2026-04-22 00:19 39.21174 -106.33903 12214 ft 161 kts 165°
2026-04-22 00:19 39.20072 -106.33638 12217 ft 162 kts 195°
2026-04-22 00:19 39.19199 -106.34456 12221 ft 158 kts 244°
2026-04-22 00:20 39.19153 -106.35817 12231 ft 158 kts 292°
2026-04-22 00:20 39.19985 -106.36722 12236 ft 167 kts 341°
2026-04-22 00:20 39.21137 -106.36460 12234 ft 178 kts 31°
2026-04-22 00:20 39.21808 -106.35125 12233 ft 185 kts 79°
2026-04-22 00:21 39.21536 -106.33533 12233 ft 185 kts 128°
2026-04-22 00:21 39.20515 -106.32667 12235 ft 179 kts 167°
2026-04-22 00:21 39.19328 -106.32153 12233 ft 181 kts 164°
2026-04-22 00:21 39.18133 -106.31604 12231 ft 184 kts 164°
2026-04-22 00:22 39.17020 -106.30787 12233 ft 189 kts 139°
2026-04-22 00:22 39.16071 -106.29605 12227 ft 189 kts 149°
2026-04-22 00:22 39.14853 -106.29293 12224 ft 178 kts 197°
2026-04-22 00:22 39.13871 -106.30121 12229 ft 168 kts 228°
2026-04-22 00:23 39.12895 -106.30909 12223 ft 173 kts 192°
2026-04-22 00:23 39.11701 -106.30636 12224 ft 181 kts 171°
2026-04-22 00:23 39.10425 -106.30700 12234 ft 190 kts 187°
2026-04-22 00:23 39.09077 -106.30608 12298 ft 196 kts 176°
2026-04-22 00:24 39.07734 -106.30260 12505 ft 197 kts 167°
2026-04-22 00:24 39.06426 -106.30365 12700 ft 188 kts 210°
2026-04-22 00:24 39.05608 -106.31577 12902 ft 182 kts 254°
2026-04-22 00:24 39.05735 -106.33138 13099 ft 180 kts 297°
2026-04-22 00:25 39.06724 -106.34126 13228 ft 192 kts 339°
2026-04-22 00:25 39.08091 -106.34399 13235 ft 203 kts 351°
2026-04-22 00:25 39.09524 -106.34192 13234 ft 211 kts
2026-04-22 00:25 39.10893 -106.34600 13234 ft 206 kts 328°
2026-04-22 00:26 39.11908 -106.35844 13234 ft 203 kts 297°
2026-04-22 00:26 39.12246 -106.37572 13234 ft 202 kts 265°
2026-04-22 00:26 39.11631 -106.39180 13225 ft 207 kts 226°
2026-04-22 00:26 39.10323 -106.39877 13225 ft 212 kts 186°
2026-04-22 00:27 39.08929 -106.39294 13226 ft 215 kts 148°
2026-04-22 00:27 39.07883 -106.37897 13235 ft 221 kts 127°
2026-04-22 00:27 39.06713 -106.36705 13229 ft 217 kts 160°
2026-04-22 00:27 39.05233 -106.36409 13228 ft 215 kts 177°
2026-04-22 00:28 39.03942 -106.36655 13970 ft 173 kts 221°
2026-04-22 00:28 39.03384 -106.38078 13711 ft 200 kts 265°
2026-04-22 00:28 39.03691 -106.39881 13633 ft 208 kts 298°
2026-04-22 00:28 39.04651 -106.41272 13587 ft 215 kts 317°
2026-04-22 00:29 39.05833 -106.42472 13400 ft 220 kts 310°
2026-04-22 00:29 39.06241 -106.44320 13230 ft 213 kts 280°
2026-04-22 00:29 39.06574 -106.46146 13240 ft 211 kts 281°
2026-04-22 00:29 39.06874 -106.47965 13177 ft 208 kts 281°
2026-04-22 00:30 39.07172 -106.49747 13047 ft 198 kts 281°
2026-04-22 00:30 39.07468 -106.51414 12911 ft 184 kts 285°
2026-04-22 00:30 39.07935 -106.52902 12766 ft 176 kts 299°
2026-04-22 00:30 39.08873 -106.53884 12640 ft 176 kts 330°
2026-04-22 00:31 39.09977 -106.54524 12493 ft 171 kts 341°
2026-04-22 00:31 39.11083 -106.54294 12338 ft 160 kts 32°
2026-04-22 00:31 39.12015 -106.53633 12227 ft 158 kts
2026-04-22 00:31 39.13114 -106.53805 12317 ft 165 kts 352°
2026-04-22 00:32 39.14197 -106.53944 12858 ft 151 kts 336°
2026-04-22 00:32 39.15135 -106.54463 13286 ft 152 kts 329°
2026-04-22 00:32 39.15903 -106.55450 13496 ft 161 kts 301°
2026-04-22 00:32 39.16645 -106.56554 13851 ft 171 kts 315°
2026-04-22 00:33 39.17618 -106.57486 13684 ft 180 kts 325°
2026-04-22 00:33 39.18679 -106.58212 13892 ft 165 kts 330°
2026-04-22 00:33 39.19444 -106.59186 13884 ft 152 kts 289°
2026-04-22 00:33 39.19634 -106.60582 13520 ft 168 kts 272°
2026-04-22 00:34 39.19886 -106.62107 13455 ft 176 kts 285°
2026-04-22 00:34 39.20274 -106.63727 13274 ft 200 kts 287°
2026-04-22 00:34 39.20642 -106.65371 13322 ft 183 kts 289°
2026-04-22 00:34 39.20832 -106.66999 13123 ft 195 kts 261°
2026-04-22 00:35 39.20784 -106.68670 13010 ft 186 kts 272°
2026-04-22 00:35 39.20948 -106.70359 12974 ft 192 kts 278°
2026-04-22 00:35 39.21189 -106.72033 13176 ft 194 kts 282°
2026-04-22 00:35 39.21519 -106.73736 13345 ft 194 kts 283°
2026-04-22 00:36 39.21833 -106.75430 13547 ft 195 kts 282°
2026-04-22 00:36 39.22130 -106.77107 13742 ft 196 kts 281°
2026-04-22 00:36 39.22628 -106.78757 13916 ft 198 kts 308°
2026-04-22 00:36 39.23534 -106.80092 14100 ft 198 kts 297°
2026-04-22 00:37 39.24060 -106.81733 14220 ft 200 kts 289°
2026-04-22 00:37 39.24520 -106.83457 14227 ft 207 kts 284°
2026-04-22 00:37 39.24461 -106.85306 14228 ft 210 kts 257°
2026-04-22 00:37 39.24041 -106.87131 14233 ft 214 kts 250°
2026-04-22 00:38 39.23097 -106.88597 14225 ft 219 kts 213°
2026-04-22 00:38 39.21684 -106.89291 14229 ft 220 kts 205°
2026-04-22 00:38 39.20304 -106.90149 14234 ft 220 kts 210°
2026-04-22 00:38 39.18928 -106.91045 14230 ft 223 kts 204°
2026-04-22 00:39 39.17381 -106.91142 14210 ft 230 kts 167°
2026-04-22 00:39 39.16091 -106.89977 14225 ft 233 kts 128°
2026-04-22 00:39 39.15390 -106.88090 14233 ft 235 kts 111°
2026-04-22 00:39 39.14976 -106.86053 14220 ft 234 kts 91°
2026-04-22 00:40 39.15411 -106.84132 14224 ft 220 kts 53°
2026-04-22 00:40 39.16292 -106.82547 14207 ft 213 kts 43°
2026-04-22 00:40 39.17538 -106.81697 14216 ft 198 kts 14°
2026-04-22 00:40 39.18437 -106.81383 13576 ft 212 kts
2026-04-22 00:41 39.19947 -106.81508 11770 ft 242 kts 335°
2026-04-22 00:41 39.21226 -106.82726 11259 ft 210 kts 315°
2026-04-22 00:41 39.22224 -106.83886 10935 ft 179 kts 315°
2026-04-22 00:41 39.23075 -106.84805 10795 ft 147 kts 326°
2026-04-22 00:42 39.23985 -106.85351 10353 ft 145 kts 322°
2026-04-22 00:42 39.24611 -106.86272 9797 ft 136 kts 313°
2026-04-22 00:42 39.25228 -106.87112 9351 ft 121 kts 296°
2026-04-22 00:42 39.25015 -106.87921 8787 ft 109 kts 212°
2026-04-22 00:43 39.24327 -106.87740 8127 ft 118 kts 119°
2026-04-22 00:43 39.23696 -106.87424 7874 ft 93 kts 185°
2026-04-22 00:43 39.23068 -106.87231 7699 ft 86 kts 163°
2026-04-22 00:43 39.22588 -106.87011 7731 ft 48 kts 159°
2026-04-22 00:44 39.22358 -106.86901 7743 ft 17 kts 147°
2026-04-22 00:44 39.22340 -106.86786 7746 ft 7 kts 75°
2026-04-22 00:44 39.22340 -106.86784 7746 ft 0 kts 75°
2026-04-22 00:45 39.22344 -106.86750 7748 ft 4 kts 110°
2026-04-22 00:45 39.22334 -106.86731 7750 ft 4 kts 152°
2026-04-22 00:45 39.22348 -106.86727 7751 ft 8 kts 322°
2026-04-22 00:46 39.22417 -106.86797 7742 ft 13 kts 329°
2026-04-22 00:46 39.22469 -106.86832 7739 ft 0 kts 339°
2026-04-22 00:46 39.22495 -106.86846 7738 ft 6 kts 335°
2026-04-22 00:46 39.22575 -106.86880 7736 ft 15 kts 341°
2026-04-22 00:47 39.22677 -106.86889 7728 ft 11 kts 349°
2026-04-22 00:47 39.22684 -106.86901 7726 ft 0 kts 242°